{"data":{"norad_id":58346,"intl_designator":"2023-175A","name":"O3B MPOWER F5","alt_names":[],"object_type":"PAYLOAD","status":"ACTIVE","operator":null,"country":"O3B","launch_date":"2023-11-12","launch_site_code":"AFETR","launch_vehicle":null,"mission":null,"orbit_class":"UNKNOWN","rcs_meters":null,"size_class":null,"mass_kg":null,"dimensions":null,"purposes":["comms"],"wikipedia_slug":null,"has_3d_model":false,"image_url":null,"decayed_at":null,"tle_current":{"epoch":"2026-09-19T10:57:59.221152Z","epoch_age_seconds":104583,"freshness":"FRESH","line1":"1 58346U 23175A   26262.45693543 -.00000027  00000+0  00000+0 0  9999","line2":"2 58346   0.0608   3.4065 0006280 191.2333 165.3442  5.00115668 54150","mean_motion":5.00115668,"eccentricity":0.000628,"inclination_deg":0.0608,"raan_deg":3.4065,"arg_perigee_deg":191.2333,"mean_anomaly_deg":165.3442,"bstar":0,"rev_number":5415,"period_min":287.93339064114,"perigee_km":8056.8161365124,"apogee_km":8074.9578306358,"semimajor_km":14444.023983574,"source":"CELESTRAK","updated_at":"2026-09-20T09:00:35.689698Z"}}}